Home   Weather   Leesburg   Past weeks

Flag for USA Past Weather in Leesburg, Virginia, USA — Yesterday and Last 2 Weeks

Now
43 °F

Sunny.


Feels Like: 43 °F
Forecast: 34 / 47 °F
Wind: No wind

Location: Leesburg / Godfrey

Current Time: Dec 4, 2016 at 11:36:21 am

Latest Report: Dec 4, 2016 at 11:15 am


Visibility: 10 mi

Pressure: 30.28 "Hg

Humidity: 66%

Dew Point: 32 °F

Location of LeesburgLocation

Past Weather in Leesburg — Graph

°F

Leesburg Temperature Yesterday

Maximum temperature yesterday: 46 °F (at 10:55 am)
Minimum temperature yesterday: 39 °F (at 11:35 pm)
Average temperature yesterday: 43 °F

High & Low Weather Summary for the Past Weeks

 TemperatureHumidityPressure
High68 °F (Nov 19, 12:35 pm)100% (Nov 25, 1:15 am)30.38 "Hg (Nov 25, 1:15 am)
Low27 °F (Nov 23, 1:55 am)32% (Nov 22, 1:55 pm)29.55 "Hg (Nov 30, 9:35 pm)
Average45 °F70%30.08 "Hg
* Reported Nov 19 10:15 am — Dec 4 10:15 am, Leesburg, Weather by CustomWeather, © 2016

Note: Actual official high and low records may vary slightly from our data, if they occured in-between our weather recording intervals... More about our weather records

Advertising

Leesburg Weather History for the Previous 24 Hours

Scroll right to see more
 ConditionsComfort  
Time TempWeatherWind HumidityBarometerVisibility
10:15 am
Sun, Dec 4
43 °FSunny.No wind66%30.31 "Hg10 mi
9:55 am43 °FSunny.N/A66%30.30 "Hg10 mi
9:35 am41 °FSunny.N/A70%30.30 "Hg10 mi
9:15 am41 °FSunny.N/A70%30.29 "Hg10 mi
8:55 am39 °FSunny.N/A75%30.29 "Hg10 mi
8:35 am39 °FSunny.6 mph75%30.29 "Hg10 mi
8:15 am37 °FSunny.N/A81%30.30 "Hg10 mi
7:55 am37 °FSunny.N/A81%30.30 "Hg10 mi
7:35 am36 °FSunny.5 mph87%30.29 "Hg10 mi
7:15 am36 °FSunny.6 mph87%30.30 "Hg10 mi
6:55 am36 °FClear.N/A87%30.29 "Hg10 mi
6:35 am36 °FClear.5 mph81%30.28 "Hg10 mi
6:15 am36 °FClear.3 mph81%30.29 "Hg10 mi
5:55 am36 °FClear.No wind81%30.29 "Hg10 mi
5:15 am36 °FClear.N/A81%30.29 "Hg10 mi
4:55 am36 °FClear.6 mph81%30.28 "Hg10 mi
4:35 am36 °FClear.5 mph87%30.28 "Hg10 mi
4:15 am37 °FClear.8 mph81%30.28 "Hg10 mi
3:55 am37 °FClear.10 mph81%30.27 "Hg10 mi
3:15 am36 °FClear.7 mph87%30.28 "Hg10 mi
2:55 am37 °FClear.10 mph81%30.29 "Hg10 mi
2:15 am37 °FClear.9 mph81%30.30 "Hg10 mi
1:55 am36 °FClear.10 mph87%30.29 "Hg10 mi
1:35 am36 °FClear.5 mph81%30.28 "Hg10 mi
1:15 am37 °FClear.9 mph75%30.29 "Hg10 mi
12:55 am37 °FPassing clouds.5 mph81%30.29 "Hg10 mi
12:35 am39 °FPassing clouds.5 mph75%30.30 "Hg10 mi
12:15 am39 °FPassing clouds.8 mph75%30.30 "Hg10 mi
11:55 pm
Sat, Dec 3
39 °FOvercast.12 mph75%30.30 "Hg10 mi
11:35 pm39 °FPassing clouds.12 mph75%30.30 "Hg10 mi
11:15 pm41 °FOvercast.12 mph70%30.30 "Hg10 mi
10:55 pm41 °FOvercast.13 mph70%30.30 "Hg10 mi
10:35 pm41 °FOvercast.13 mph70%30.29 "Hg10 mi
10:15 pm41 °FOvercast.15 mph70%30.29 "Hg10 mi
9:35 pm41 °FOvercast.12 mph70%30.29 "Hg10 mi
9:15 pm41 °FOvercast.13 mph70%30.28 "Hg10 mi
8:55 pm41 °FOvercast.10 mph70%30.28 "Hg10 mi
8:35 pm41 °FOvercast.14 mph70%30.27 "Hg10 mi
8:15 pm41 °FOvercast.14 mph70%30.28 "Hg10 mi
7:55 pm41 °FOvercast.15 mph70%30.27 "Hg10 mi
7:15 pm43 °FOvercast.15 mph66%30.27 "Hg10 mi
6:55 pm43 °FOvercast.16 mph66%30.27 "Hg10 mi
6:15 pm43 °FOvercast.10 mph66%30.26 "Hg10 mi
5:55 pm43 °FOvercast.10 mph66%30.26 "Hg10 mi
5:35 pm43 °FOvercast.15 mph66%30.26 "Hg10 mi
5:15 pm43 °FPassing clouds.16 mph66%30.26 "Hg10 mi
4:55 pm43 °FPassing clouds.20 mph66%30.26 "Hg10 mi
4:35 pm43 °FScattered clouds.13 mph66%30.25 "Hg10 mi
4:15 pm45 °FPartly sunny.18 mph61%30.25 "Hg10 mi
3:55 pm45 °FOvercast.10 mph61%30.26 "Hg10 mi
3:35 pm45 °FOvercast.14 mph61%30.26 "Hg10 mi
3:15 pm45 °FPartly sunny.22 mph61%30.25 "Hg10 mi
2:55 pm46 °FOvercast.21 mph57%30.24 "Hg10 mi
2:35 pm45 °FPartly sunny.13 mph61%30.23 "Hg10 mi
2:15 pm46 °FPartly sunny.12 mph57%30.22 "Hg10 mi
1:55 pm46 °FOvercast.13 mph57%30.21 "Hg10 mi
1:35 pm46 °FOvercast.14 mph57%30.21 "Hg10 mi
1:15 pm46 °FOvercast.10 mph57%30.21 "Hg10 mi
12:55 pm46 °FOvercast.16 mph57%30.22 "Hg10 mi
12:35 pm46 °FOvercast.16 mph57%30.23 "Hg10 mi
12:15 pm46 °FOvercast.17 mph57%30.23 "Hg10 mi
11:55 am46 °FOvercast.17 mph57%30.25 "Hg10 mi
11:35 am45 °FOvercast.14 mph61%30.25 "Hg10 mi
11:15 am45 °FOvercast.17 mph61%30.25 "Hg10 mi
Weather by CustomWeather, © 2016

See weather overviewHow to use our weather pages